[[{"header":{"parameterUnit":"m.s-1","parameterCategory":2,"la1":30.2991,"la2":30.254,"lo1":-89.0895,"lo2":-89.0444,"dy":0.0017,"dx":0.0017,"nx":28,"ny":28,"refTime":"2025-04-16T09:00:00:Z","depth":"0","parameterNumber":2,"parameterNumberName":"U-component_of_CURRENTS"},"data":[0,0,0,0,0,0,0,0,0,0,0,0,0,0,0,0,0,0,0,0,0,0,0,0,0,0,0,0,0,0,0,0,0,0,0,0,0,0,0,0,0,0,0,0,0,0,0,0,0,0,0,0,0,0,0,0,0,0,0.2258,0.2259,0,0.2258,0.2258,0.2258,0.2259,0.226,0.226,0.226,0.2247,0.2246,0.2246,0,0,0,0,0,0,0,0,0,0,0,0,0,0.2203,0.2204,0.2258,0.2259,0.2259,0.2258,0.2258,0.2258,0.2259,0.226,0.226,0.226,0.2247,0.2247,0.2246,0,0,0,0,0,0,0,0,0,0,0,0,0,0.2215,0.2205,0.2258,0.2261,0.2262,0.2258,0.2258,0.2258,0.2259,0.226,0.226,0.226,0.2247,0.2247,0.2246,0.2233,0,0,0.2243,0.2243,0,0,0,0,0,0,0,0,0.2215,0.2217,0.2261,0.2261,0.2262,0.2261,0.2234,0.225,0.2259,0.2258,0.226,0.2261,0.2252,0.2251,0.2247,0.2232,0.2231,0.2243,0.2242,0.2242,0.2242,0,0,0,0,0,0,0,0.2214,0.2217,0.2256,0.2261,0.2261,0.2243,0.2246,0.2236,0.2251,0.2258,0.2259,0.2262,0.2252,0.2247,0.2246,0.2231,0.2243,0.2242,0.2242,0.2241,0.2273,0.2274,0,0,0,0,0,0,0.2221,0.2216,0.2256,0.2256,0.2241,0.2244,0.2247,0.2259,0.2251,0.2251,0.2262,0.2262,0.2249,0.2247,0.2246,0.2284,0.2242,0.2241,0.2241,0.2271,0.2273,0.2274,0,0,0,0,0,0,0.222,0.2225,0.2256,0.2237,0.224,0.2246,0.2259,0.2259,0.226,0.2255,0.2254,0.2264,0.2249,0.2247,0.2255,0.2281,0.2241,0.224,0.227,0.2272,0.2274,0.2325,0,0,0,0,0,0,0.2219,0.2225,0.2233,0.2238,0.2242,0.2262,0.2259,0.2259,0.2263,0.2263,0.2256,0.2255,0.2249,0.2256,0.2254,0.2279,0.2239,0.2268,0.2271,0.2273,0.2322,0.2329,0.2335,0,0,0,0,0,0.2217,0.2225,0.2234,0.2238,0.2254,0.2263,0.2263,0.2265,0.2263,0.2266,0.2269,0.2256,0.2271,0.2256,0.2253,0.2279,0.2267,0.227,0.2273,0.2319,0.2327,0.2335,0,0,0,0,0,0,0.2198,0.2226,0.2236,0.2251,0.2262,0.2264,0.2265,0.2267,0.227,0.227,0.2263,0.2263,0.2284,0.2272,0.2256,0.2298,0.227,0.2273,0.2307,0.2314,0.2321,0.2326,0.2239,0,0,0,0,0,0.22,0.2217,0.2238,0.2248,0.2256,0.2261,0.2263,0.2267,0.2272,0.2273,0.2272,0.2277,0.2292,0.2295,0.23,0.2312,0.2327,0.2331,0.2337,0.2343,0.2347,0.2388,0.2399,0.2284,0.2284,0.2284,0,0,0.2193,0.2212,0.222,0.2246,0.2251,0.2268,0.2262,0.2269,0.2288,0.227,0.2289,0.2294,0.2301,0.2326,0.2334,0.2319,0.239,0.2347,0.2351,0.2352,0.2393,0.2404,0.2414,0.2287,0.2286,0.2286,0,0,0.2186,0.2208,0.222,0.2237,0.2256,0.2266,0.2272,0.2283,0.2295,0.231,0.2317,0.2341,0.2343,0.2368,0.2378,0.2421,0.2423,0.2422,0.2457,0.2498,0.2507,0.2516,0.2576,0.259,0.2425,0.2425,0.2425,0,0.2175,0.2202,0.2221,0.224,0.2258,0.227,0.2289,0.2303,0.2316,0.2338,0.2323,0.2368,0.2369,0.2423,0.2443,0.2436,0.2463,0.2426,0.2506,0.2515,0.2523,0.2582,0.2596,0.2428,0.2428,0.2427,0.2427,0,0.2181,0.2206,0.2213,0.2252,0.2272,0.2287,0.232,0.2341,0.2354,0.2374,0.2421,0.2428,0.2459,0.2469,0.2466,0.2532,0.2536,0.251,0.2486,0.2538,0.2597,0.2611,0.2432,0.2431,0.243,0.2429,0,0,0.215,0.2208,0.2211,0.2236,0.2283,0.2298,0.2344,0.2393,0.2431,0.2446,0.2497,0.2529,0.2537,0.255,0.2557,0.2589,0.2676,0.2575,0.2575,0.2634,0.2788,0.2802,0.2818,0.2662,0.2664,0.2666,0.2816,0,0.215,0.2188,0.2222,0.2262,0.2288,0.2332,0.2378,0.2426,0.2464,0.2515,0.2546,0.2589,0.2569,0.259,0.2623,0.2664,0.2711,0.2639,0.2729,0.2732,0.2737,0.2834,0.2759,0.2887,0.2829,0.2832,0.2833,0,0.2147,0.2178,0.2215,0.2287,0.2302,0.2329,0.2413,0.2454,0.2539,0.2574,0.2626,0.265,0.2722,0.2679,0.2785,0.274,0.2772,0.2794,0.2799,0.28,0.2772,0.2821,0.2914,0.286,0.2854,0.2853,0.2851,0,0.2116,0.2175,0.2205,0.2227,0.2305,0.2335,0.2379,0.2467,0.2528,0.2612,0.2675,0.2736,0.2796,0.2829,0.2891,0.2842,0.3005,0.2941,0.2989,0.2991,0.2939,0.2933,0.2987,0.3015,0.3014,0.3014,0.3013,0,0.2107,0.2132,0.2189,0.2205,0.2258,0.2315,0.2386,0.2445,0.2549,0.2624,0.2698,0.2775,0.2836,0.2933,0.2943,0.304,0.3057,0.3027,0.3038,0.2959,0.2952,0.291,0.2871,0.3019,0.3018,0.3017,0.3016,0,0.2071,0.2108,0.2146,0.2216,0.2242,0.2275,0.2391,0.2439,0.2556,0.2658,0.2694,0.2847,0.2973,0.3054,0.3143,0.3138,0.3129,0.322,0.314,0.3138,0.3088,0.3055,0.3003,0.2907,0.3287,0.3288,0.3289,0,0.2057,0.2071,0.2137,0.2156,0.2184,0.225,0.2293,0.2417,0.2474,0.2688,0.2725,0.2918,0.3022,0.3214,0.3249,0.3326,0.3204,0.329,0.3168,0.3112,0.3083,0.2928,0.2837,0.3135,0.3134,0.3134,0.3134,0,0.2028,0.2046,0.207,0.2112,0.2146,0.2202,0.2271,0.233,0.2471,0.2592,0.2738,0.2854,0.3081,0.3151,0.3302,0.3315,0.3147,0.3288,0.3242,0.2995,0.2815,0.2719,0.3026,0.3133,0.3133,0.3133,0.3133,0.3133,0.1993,0.2,0.2025,0.2064,0.2097,0.2125,0.2145,0.2233,0.2338,0.2487,0.2649,0.2804,0.3023,0.3225,0.3227,0.3232,0.3149,0.3147,0.3127,0.2986,0.2838,0.3161,0.3262,0.3263,0.3264,0.3265,0.3265,0,0.1948,0.1957,0.1981,0.2006,0.2004,0.2052,0.2103,0.2112,0.2183,0.237,0.2507,0.2754,0.2905,0.305,0.3171,0.3091,0.2902,0.3022,0.2778,0.2703,0.3027,0.2965,0.2989,0.2989,0.299,0.299,0.299,0.299,0.1919,0.1918,0.1935,0.191,0.1917,0.1888,0.1894,0.1928,0.2031,0.2193,0.234,0.2503,0.2834,0.3096,0.3103,0.3009,0.2751,0.2662,0.261,0.2855,0.2863,0.287,0.2803,0.2793,0.2793,0.2164,0.2159,0.2156]},{"header":{"parameterUnit":"m.s-1","parameterCategory":2,"la1":30.2991,"la2":30.254,"lo1":-89.0895,"lo2":-89.0444,"dy":0.0017,"dx":0.0017,"nx":28,"ny":28,"refTime":"2025-04-16T09:00:00:Z","depth":"0","parameterNumber":3,"parameterNumberName":"V-component_of_CURRENTS"},"data":[0,0,0,0,0,0,0,0,0,0,0,0,0,0,0,0,0,0,0,0,0,0,0,0,0,0,0,0,0,0,0,0,0,0,0,0,0,0,0,0,0,0,0,0,0,0,0,0,0,0,0,0,0,0,0,0,0,0,0.0128,0.0127,0,0.0044,0.0043,0.0042,-0.0011,-0.0011,-0.0011,-0.0011,-0.0121,-0.0124,-0.0127,0,0,0,0,0,0,0,0,0,0,0,0,0,0.0166,0.0166,0.0128,0.0127,0.0126,0.0044,0.0043,0.0042,-0.0011,-0.0011,-0.0011,-0.0011,-0.012,-0.0124,-0.0127,0,0,0,0,0,0,0,0,0,0,0,0,0,0.0121,0.0166,0.0128,0.0091,0.0087,0.0045,0.0043,0.0041,-0.0011,-0.0011,-0.0011,-0.0011,-0.0119,-0.0123,-0.0128,-0.0149,0,0,-0.014,-0.0142,0,0,0,0,0,0,0,0,0.0124,0.012,0.0097,0.0094,0.0089,0.0028,0.0016,-0.0023,-0.0011,0.0025,-0.0011,-0.0011,-0.0073,-0.0081,-0.0098,-0.0154,-0.0158,-0.0141,-0.0143,-0.0145,-0.0146,0,0,0,0,0,0,0,0.0127,0.0123,0.0093,0.0097,0.0091,0.0053,0.0047,0.0008,-0.0023,0.0022,0.0018,0.0011,-0.0075,-0.0093,-0.0101,-0.016,-0.0141,-0.0144,-0.0147,-0.0148,-0.0233,-0.0233,0,0,0,0,0,0,0.0145,0.0126,0.0096,0.0091,0.0108,0.0053,0.0046,0.0047,-0.0022,-0.0032,0.0012,0.0009,-0.0086,-0.0096,-0.0105,-0.0117,-0.0145,-0.0149,-0.0151,-0.0233,-0.0233,-0.0232,0,0,0,0,0,0,0.0146,0.0144,0.0099,0.0107,0.0099,0.0053,0.0054,0.0045,0.0027,-0.0029,-0.004,0.0003,-0.0087,-0.0099,-0.0133,-0.0123,-0.0151,-0.0155,-0.0233,-0.0233,-0.0233,-0.0153,0,0,0,0,0,0,0.0148,0.0145,0.015,0.0109,0.0099,0.0081,0.0054,0.0044,0.0024,0.002,-0.0041,-0.0051,-0.0088,-0.0127,-0.0137,-0.0129,-0.0158,-0.0234,-0.0233,-0.0233,-0.0156,-0.015,-0.0145,0,0,0,0,0,0.015,0.0162,0.0151,0.0147,0.0109,0.0081,0.0073,0.0038,0.0024,0.0019,-0.0019,-0.0049,-0.0131,-0.013,-0.0143,-0.0135,-0.0234,-0.0233,-0.0233,-0.0158,-0.0151,-0.0145,0,0,0,0,0,0,0.0181,0.0157,0.0144,0.0148,0.012,0.0073,0.0067,0.0042,0.0007,0.0004,-0.005,-0.0063,-0.0088,-0.0124,-0.0121,-0.0158,-0.0186,-0.0188,-0.0126,-0.0119,-0.0114,-0.0098,-0.0161,0,0,0,0,0,0.0192,0.0195,0.0161,0.0164,0.0154,0.0111,0.0095,0.0072,0.0037,0.0021,-0.002,-0.0061,-0.0096,-0.0116,-0.0154,-0.0176,-0.0207,-0.0179,-0.0173,-0.0168,-0.0165,-0.0209,-0.0206,-0.023,-0.023,-0.0231,0,0,0.0203,0.0191,0.0192,0.017,0.0146,0.0141,0.0101,0.0084,0.0079,0.0014,-0.0003,-0.0045,-0.0098,-0.012,-0.0135,-0.0148,-0.0174,-0.0168,-0.0163,-0.0162,-0.0208,-0.0205,-0.0203,-0.023,-0.023,-0.023,0,0,0.0231,0.022,0.0231,0.0215,0.0188,0.0163,0.0163,0.0122,0.0104,0.008,0.0036,0.0003,-0.0053,-0.0085,-0.011,-0.0098,-0.0143,-0.011,-0.007,-0.0112,-0.011,-0.0109,-0.0125,-0.0126,-0.0107,-0.0106,-0.0106,0,0.0245,0.0257,0.0228,0.0234,0.0228,0.018,0.019,0.0164,0.0118,0.0107,0.0086,0.001,-0.0035,-0.0063,-0.0058,-0.0084,-0.0109,-0.0088,-0.0104,-0.0103,-0.0104,-0.012,-0.0123,-0.0103,-0.0103,-0.0103,-0.0104,0,0.0279,0.0287,0.0293,0.0289,0.0278,0.0277,0.0245,0.0232,0.0205,0.0175,0.0142,0.008,0.0035,0.0016,-0.0019,-0.004,-0.0055,-0.009,-0.0116,-0.0096,-0.0115,-0.0119,-0.0097,-0.0098,-0.01,-0.0101,0,0,0.0313,0.0318,0.0319,0.0332,0.0309,0.0306,0.0304,0.0286,0.029,0.0236,0.0234,0.0165,0.0127,0.0096,0.0046,0.0008,-0.0011,-0.0036,-0.004,-0.0043,-0.0086,-0.0083,-0.0088,-0.005,-0.0051,-0.0052,-0.009,0,0.0347,0.0379,0.0369,0.0397,0.0412,0.038,0.0384,0.0361,0.0334,0.032,0.025,0.0225,0.0159,0.0143,0.0093,0.0015,-0.002,0.0004,-0.0113,-0.0116,-0.011,-0.0092,-0.0071,-0.0103,-0.0094,-0.0095,-0.0095,0,0.0382,0.0402,0.0439,0.0462,0.0466,0.0473,0.0478,0.0476,0.044,0.042,0.0375,0.0319,0.0259,0.02,0.0077,0.0095,0.0014,-0.0051,-0.0055,-0.0086,-0.0121,-0.0128,-0.011,-0.0269,-0.0101,-0.0101,-0.01,0,0.0421,0.0451,0.0487,0.0492,0.0506,0.0518,0.0522,0.0502,0.0526,0.0483,0.0502,0.0397,0.0376,0.0243,0.0113,0.009,-0.0016,-0.0066,-0.0139,-0.0139,-0.016,-0.0161,-0.0305,-0.0154,-0.0154,-0.0154,-0.0154,0,0.0461,0.0489,0.0509,0.0528,0.0582,0.0566,0.0616,0.0604,0.0612,0.0665,0.056,0.0586,0.0385,0.0302,0.0151,0.0011,0.0011,-0.0124,-0.0152,-0.0129,-0.0127,-0.0299,-0.0398,-0.0155,-0.0155,-0.0155,-0.0154,0,0.0493,0.0504,0.0552,0.0583,0.0602,0.0636,0.07,0.0737,0.0734,0.0805,0.0803,0.0732,0.0627,0.0435,0.0237,0.0091,-0.0161,-0.0118,-0.0062,-0.0083,-0.0312,-0.0406,-0.0592,-0.0677,-0.0212,-0.0212,-0.0212,0,0.0511,0.0539,0.06,0.0645,0.0662,0.0721,0.0771,0.0792,0.0853,0.0913,0.0963,0.0887,0.0872,0.0587,0.029,0.003,-0.0144,-0.0125,-0.0177,-0.0315,-0.0442,-0.0519,-0.0584,-0.0166,-0.0166,-0.0166,-0.0166,0,0.0556,0.0573,0.0616,0.0712,0.0775,0.0859,0.0939,0.1018,0.107,0.1154,0.1246,0.1241,0.0974,0.0713,0.0341,0.015,-0.0246,-0.0129,-0.0301,-0.0438,-0.0506,-0.0602,-0.0136,-0.0164,-0.0164,-0.0164,-0.0164,-0.0164,0.0592,0.0635,0.0702,0.0795,0.0875,0.0996,0.1098,0.1208,0.1353,0.1517,0.1476,0.1522,0.1108,0.0604,0.0309,-0.021,-0.0243,-0.0368,-0.0473,-0.0539,-0.0625,-0.0138,-0.0184,-0.0184,-0.0185,-0.0185,-0.0185,0,0.0649,0.0705,0.079,0.091,0.1014,0.1046,0.1215,0.1344,0.1555,0.1691,0.1792,0.1617,0.1127,0.0606,-0.0107,-0.0481,-0.0639,-0.0691,-0.0812,-0.0865,-0.0449,-0.045,-0.0521,-0.0521,-0.0521,-0.0521,-0.0521,-0.0521,0.0686,0.078,0.083,0.1018,0.1105,0.1275,0.1389,0.1589,0.1733,0.1937,0.1974,0.1958,0.1551,0.0236,-0.0619,-0.0813,-0.1104,-0.1167,-0.1321,-0.1047,-0.1025,-0.1005,-0.1029,-0.1221,-0.1222,-0.1684,-0.1689,-0.1692]}],[{"header":{"parameterUnit":"m.s-1","parameterCategory":2,"la1":30.2991,"la2":30.254,"lo1":-89.0895,"lo2":-89.0444,"dy":0.0017,"dx":0.0017,"nx":28,"ny":28,"refTime":"2025-04-16T09:00:00:Z","depth":"2","parameterNumber":2,"parameterNumberName":"U-component_of_CURRENTS"},"data":[0,0,0,0,0,0,0,0,0,0,0,0,0,0,0,0,0,0,0,0,0,0,0,0,0,0,0,0,0,0,0,0,0,0,0,0,0,0,0,0,0,0,0,0,0,0,0,0,0,0,0,0,0,0,0,0,0,0,0.2177,0.2177,0,0.2182,0.2181,0.2181,0.2192,0.2193,0.2193,0.2193,0.2191,0.2191,0.219,0,0,0,0,0,0,0,0,0,0,0,0,0,0.2131,0.2132,0.2177,0.2177,0.2177,0.2182,0.2181,0.2181,0.2192,0.2193,0.2193,0.2194,0.2191,0.2191,0.219,0,0,0,0,0,0,0,0,0,0,0,0,0,0.2144,0.2132,0.2177,0.2184,0.2185,0.2182,0.2181,0.2181,0.2192,0.2193,0.2193,0.2194,0.2191,0.2191,0.219,0.2177,0,0,0.2189,0.2188,0,0,0,0,0,0,0,0,0.2143,0.2145,0.2183,0.2184,0.2184,0.2188,0.2164,0.218,0.2192,0.2188,0.2194,0.2194,0.219,0.2189,0.2188,0.2176,0.2176,0.2189,0.2188,0.2188,0.2188,0,0,0,0,0,0,0,0.2142,0.2145,0.2177,0.2183,0.2184,0.2171,0.2174,0.2167,0.2185,0.2189,0.219,0.2192,0.219,0.2188,0.2188,0.2176,0.2189,0.2188,0.2188,0.2187,0.2224,0.2225,0,0,0,0,0,0,0.2146,0.2144,0.2177,0.2178,0.2166,0.2172,0.2175,0.2185,0.2185,0.2186,0.2192,0.2193,0.2189,0.2188,0.2188,0.2231,0.2188,0.2187,0.2187,0.2223,0.2224,0.2226,0,0,0,0,0,0,0.2145,0.2149,0.2177,0.2161,0.2164,0.2173,0.2184,0.2185,0.2193,0.2188,0.2189,0.2199,0.2189,0.2188,0.22,0.2228,0.2187,0.2187,0.2221,0.2223,0.2225,0.2279,0,0,0,0,0,0,0.2144,0.2149,0.2158,0.2162,0.2165,0.2185,0.2184,0.2185,0.2193,0.2195,0.2194,0.2194,0.219,0.2201,0.22,0.2227,0.2186,0.222,0.2222,0.2224,0.2275,0.2282,0.2288,0,0,0,0,0,0.2142,0.215,0.2159,0.2163,0.2178,0.2186,0.2186,0.2192,0.2193,0.22,0.2206,0.2195,0.2216,0.2201,0.2199,0.2227,0.2218,0.2221,0.2224,0.2272,0.2281,0.2288,0,0,0,0,0,0,0.2129,0.2152,0.2162,0.2176,0.2186,0.2188,0.2192,0.2196,0.2204,0.2207,0.2203,0.2203,0.2227,0.2217,0.2201,0.2247,0.2219,0.2221,0.2256,0.2264,0.227,0.2274,0.2186,0,0,0,0,0,0.2132,0.2148,0.2165,0.2175,0.2182,0.2189,0.2193,0.2199,0.2205,0.2209,0.2211,0.2219,0.2236,0.2241,0.2247,0.2262,0.2274,0.2282,0.2289,0.2294,0.2297,0.2336,0.2346,0.2235,0.2235,0.2235,0,0,0.2127,0.2144,0.2151,0.2174,0.2181,0.2196,0.2192,0.2202,0.2221,0.2206,0.223,0.2237,0.2245,0.2272,0.2282,0.2268,0.2338,0.2298,0.2303,0.2302,0.234,0.235,0.236,0.2237,0.2237,0.2237,0,0,0.2123,0.2144,0.2156,0.2171,0.219,0.2199,0.2206,0.2217,0.2232,0.2251,0.2258,0.2284,0.2291,0.2315,0.2325,0.2368,0.237,0.2372,0.2407,0.2445,0.2455,0.2463,0.2516,0.2528,0.2376,0.2376,0.2377,0,0.2117,0.2141,0.2158,0.2175,0.2192,0.2204,0.2223,0.2238,0.2253,0.2276,0.2265,0.2312,0.2316,0.2368,0.2389,0.2384,0.2408,0.2377,0.2454,0.2462,0.247,0.2522,0.2535,0.2379,0.2379,0.2379,0.2379,0,0.2122,0.2147,0.2154,0.2189,0.2208,0.2224,0.2253,0.2277,0.2294,0.2312,0.2362,0.2372,0.2404,0.2415,0.2414,0.2478,0.2481,0.2457,0.2433,0.2484,0.2536,0.2549,0.2384,0.2383,0.2382,0.2381,0,0,0.2097,0.215,0.2153,0.2179,0.2221,0.2235,0.228,0.2327,0.2364,0.2384,0.2434,0.2469,0.2478,0.2492,0.2501,0.2533,0.2616,0.2521,0.2521,0.2573,0.2718,0.2708,0.272,0.2605,0.2607,0.2608,0.2742,0,0.2099,0.2133,0.2165,0.2205,0.2229,0.2272,0.2317,0.2362,0.2399,0.2449,0.2481,0.2524,0.2508,0.2533,0.2564,0.2604,0.2648,0.2583,0.2661,0.2664,0.2647,0.2734,0.2507,0.2605,0.2754,0.2756,0.2758,0,0.2096,0.2124,0.2161,0.2233,0.2249,0.2276,0.2358,0.2398,0.2476,0.251,0.256,0.2582,0.2652,0.2615,0.2714,0.2675,0.2704,0.2725,0.273,0.2706,0.2676,0.2574,0.2622,0.2779,0.2777,0.2775,0.2774,0,0.2066,0.2126,0.2158,0.2177,0.2253,0.2288,0.2333,0.2412,0.2472,0.255,0.2607,0.2665,0.2725,0.2755,0.2811,0.2769,0.2915,0.2859,0.2881,0.2881,0.2696,0.2676,0.2926,0.2926,0.2926,0.2925,0.2925,0,0.206,0.2086,0.2145,0.2159,0.2216,0.2272,0.2344,0.2402,0.25,0.2567,0.2634,0.2701,0.2763,0.2848,0.2857,0.2933,0.2961,0.2913,0.292,0.2712,0.2693,0.2834,0.2821,0.293,0.2929,0.2928,0.2928,0,0.2027,0.2063,0.2103,0.2174,0.2201,0.2239,0.2354,0.24,0.2511,0.2603,0.2638,0.2773,0.2881,0.2953,0.3034,0.3019,0.3065,0.3079,0.2847,0.2824,0.2991,0.298,0.3111,0.3112,0.3112,0.3113,0.3113,0,0.2014,0.203,0.2096,0.2117,0.2149,0.2218,0.2262,0.2382,0.2436,0.2628,0.2661,0.2831,0.2908,0.3069,0.3074,0.3128,0.3139,0.2942,0.2809,0.302,0.3014,0.3001,0.2989,0.2595,0.2591,0.2588,0.2586,0,0.1991,0.201,0.2035,0.2077,0.2114,0.2171,0.2241,0.2296,0.2429,0.2532,0.2655,0.2745,0.2921,0.2885,0.2996,0.2974,0.2909,0.2883,0.3172,0.2587,0.2545,0.2535,0.2538,0.2558,0.2561,0.2563,0.2565,0.2566,0.1961,0.1969,0.1992,0.2035,0.2068,0.2094,0.2115,0.2196,0.2286,0.2396,0.2536,0.2604,0.2684,0.2736,0.2686,0.2658,0.2843,0.2695,0.2699,0.2707,0.2628,0.2589,0.2597,0.26,0.2603,0.2605,0.2607,0,0.1918,0.1929,0.1953,0.1977,0.1976,0.2025,0.2074,0.2078,0.213,0.2242,0.2336,0.2223,0.2258,0.2331,0.2261,0.2296,0.2211,0.2191,0.2042,0.2076,0.2104,0.1985,0.1788,0.1785,0.1782,0.1779,0,0,0.189,0.1886,0.1899,0.1877,0.1889,0.1861,0.1865,0.1886,0.1944,0.1944,0.196,0.2155,0.2278,0.1989,0.1985,0.1868,0.1938,0.1798,0.2467,0.2327,0.235,0.2429,0.2291,0,0,0,0,0]},{"header":{"parameterUnit":"m.s-1","parameterCategory":2,"la1":30.2991,"la2":30.254,"lo1":-89.0895,"lo2":-89.0444,"dy":0.0017,"dx":0.0017,"nx":28,"ny":28,"refTime":"2025-04-16T09:00:00:Z","depth":"2","parameterNumber":3,"parameterNumberName":"V-component_of_CURRENTS"},"data":[0,0,0,0,0,0,0,0,0,0,0,0,0,0,0,0,0,0,0,0,0,0,0,0,0,0,0,0,0,0,0,0,0,0,0,0,0,0,0,0,0,0,0,0,0,0,0,0,0,0,0,0,0,0,0,0,0,0,0.0012,0.0011,0,-0.0066,-0.0067,-0.0068,-0.0114,-0.0114,-0.0114,-0.0114,-0.0218,-0.0221,-0.0223,0,0,0,0,0,0,0,0,0,0,0,0,0,0.0051,0.0051,0.0012,0.0011,0.001,-0.0066,-0.0067,-0.0068,-0.0114,-0.0114,-0.0114,-0.0114,-0.0217,-0.022,-0.0223,0,0,0,0,0,0,0,0,0,0,0,0,0,0.0009,0.0051,0.0012,-0.0021,-0.0025,-0.0065,-0.0067,-0.0068,-0.0114,-0.0114,-0.0114,-0.0114,-0.0216,-0.022,-0.0224,-0.0246,0,0,-0.0236,-0.0238,0,0,0,0,0,0,0,0,0.0012,0.0008,-0.0015,-0.0019,-0.0023,-0.0079,-0.0091,-0.0129,-0.0114,-0.0081,-0.0114,-0.0114,-0.0173,-0.0181,-0.0196,-0.0251,-0.0256,-0.0237,-0.0239,-0.0241,-0.0242,0,0,0,0,0,0,0,0.0015,0.001,-0.002,-0.0016,-0.0021,-0.0055,-0.0061,-0.0099,-0.0127,-0.0084,-0.0087,-0.0094,-0.0176,-0.0192,-0.0199,-0.0257,-0.0236,-0.024,-0.0243,-0.0244,-0.0327,-0.0327,0,0,0,0,0,0,0.0031,0.0014,-0.0018,-0.0022,-0.0004,-0.0055,-0.0062,-0.0062,-0.0126,-0.0135,-0.0094,-0.0096,-0.0185,-0.0194,-0.0203,-0.0214,-0.0241,-0.0245,-0.0247,-0.0327,-0.0327,-0.0327,0,0,0,0,0,0,0.0032,0.0029,-0.0015,-0.0006,-0.0014,-0.0055,-0.0056,-0.0063,-0.0078,-0.0133,-0.0143,-0.01,-0.0186,-0.0197,-0.023,-0.0219,-0.0246,-0.025,-0.0327,-0.0327,-0.0327,-0.0248,0,0,0,0,0,0,0.0034,0.003,0.0036,-0.0004,-0.0013,-0.0031,-0.0056,-0.0065,-0.0082,-0.0085,-0.0142,-0.0151,-0.0187,-0.0224,-0.0234,-0.0225,-0.0253,-0.0328,-0.0327,-0.0327,-0.0251,-0.0245,-0.024,0,0,0,0,0,0.0035,0.0046,0.0037,0.0033,-0.0004,-0.003,-0.0038,-0.007,-0.0081,-0.0085,-0.0121,-0.015,-0.0228,-0.0227,-0.0239,-0.0231,-0.0328,-0.0327,-0.0327,-0.0254,-0.0247,-0.0241,0,0,0,0,0,0,0.0066,0.0041,0.003,0.0033,0.0008,-0.0037,-0.0042,-0.0065,-0.0097,-0.0098,-0.015,-0.0163,-0.0187,-0.0222,-0.0218,-0.0254,-0.0282,-0.0284,-0.0222,-0.0216,-0.0211,-0.0193,-0.0256,0,0,0,0,0,0.0077,0.0079,0.0046,0.0049,0.004,0.0,-0.0014,-0.0035,-0.0069,-0.0083,-0.0121,-0.0161,-0.0195,-0.0214,-0.0251,-0.0272,-0.0303,-0.0275,-0.0269,-0.0264,-0.0259,-0.0301,-0.0299,-0.0325,-0.0325,-0.0325,0,0,0.0089,0.0076,0.0077,0.0056,0.0034,0.0028,-0.0009,-0.0024,-0.0028,-0.009,-0.0104,-0.0145,-0.0197,-0.0219,-0.0232,-0.0245,-0.027,-0.0264,-0.0259,-0.0257,-0.03,-0.0298,-0.0295,-0.0325,-0.0325,-0.0325,0,0,0.0115,0.0105,0.0115,0.0099,0.0075,0.0052,0.0051,0.0013,-0.0003,-0.0025,-0.0067,-0.0099,-0.0153,-0.0184,-0.0208,-0.0197,-0.0241,-0.0209,-0.0168,-0.0208,-0.0206,-0.0205,-0.0223,-0.0224,-0.0205,-0.0205,-0.0205,0,0.013,0.0141,0.0113,0.0118,0.0114,0.0068,0.0079,0.0054,0.001,0.0002,-0.0018,-0.0091,-0.0135,-0.0161,-0.0157,-0.0184,-0.0209,-0.0185,-0.02,-0.0199,-0.0199,-0.0219,-0.0221,-0.0201,-0.0202,-0.0202,-0.0203,0,0.0162,0.0171,0.0176,0.0172,0.0162,0.0162,0.0131,0.012,0.0096,0.0068,0.0038,-0.0023,-0.0064,-0.0083,-0.0118,-0.0137,-0.0154,-0.0187,-0.0211,-0.0191,-0.0214,-0.0217,-0.0196,-0.0197,-0.0198,-0.0199,0,0,0.0195,0.0199,0.0201,0.0216,0.0194,0.0192,0.019,0.0175,0.0181,0.013,0.013,0.0063,0.0028,-0.0002,-0.0051,-0.0088,-0.0106,-0.0131,-0.0135,-0.014,-0.018,-0.0195,-0.0201,-0.0143,-0.0144,-0.0144,-0.0189,0,0.0229,0.026,0.025,0.028,0.0296,0.0266,0.0272,0.0251,0.0225,0.0213,0.0146,0.0122,0.0059,0.0045,-0.0002,-0.0082,-0.0115,-0.009,-0.0207,-0.021,-0.0219,-0.0206,-0.0185,-0.0224,-0.0193,-0.0194,-0.0194,0,0.0262,0.0282,0.0321,0.0348,0.0353,0.0361,0.037,0.0369,0.0334,0.0315,0.0272,0.0218,0.016,0.0104,-0.0018,0.0,-0.008,-0.0144,-0.0148,-0.0194,-0.0233,-0.0244,-0.0232,-0.0201,-0.02,-0.02,-0.0199,0,0.0303,0.0334,0.0373,0.0378,0.0395,0.041,0.0417,0.0399,0.0422,0.0379,0.0394,0.0296,0.0271,0.0146,0.0013,-0.0005,-0.0118,-0.0161,-0.0248,-0.0249,-0.027,-0.0273,-0.0245,-0.0245,-0.0245,-0.0245,-0.0244,0,0.0343,0.0374,0.0397,0.0416,0.0475,0.0461,0.0514,0.0503,0.051,0.0554,0.0454,0.0467,0.028,0.0193,0.0048,-0.0101,-0.0093,-0.0234,-0.0264,-0.0241,-0.024,-0.0258,-0.0259,-0.0246,-0.0246,-0.0246,-0.0245,0,0.0377,0.0389,0.0441,0.0475,0.0495,0.0534,0.0598,0.0634,0.0629,0.0687,0.0685,0.0602,0.0486,0.0303,0.0109,-0.0032,-0.019,-0.0245,-0.0193,-0.0217,-0.0303,-0.0299,-0.035,-0.0351,-0.0352,-0.0353,-0.0353,0,0.0397,0.0427,0.0491,0.0537,0.0556,0.0619,0.0669,0.0689,0.0744,0.078,0.0819,0.0729,0.0679,0.039,0.0117,-0.0135,-0.0171,-0.0281,-0.0322,-0.0291,-0.0315,-0.031,-0.0306,-0.0312,-0.0312,-0.0312,-0.0313,0,0.0443,0.0463,0.0507,0.0604,0.0668,0.0751,0.0828,0.0896,0.0936,0.0989,0.1035,0.0996,0.073,0.046,0.0109,-0.0063,-0.0247,-0.0292,-0.0276,-0.0289,-0.0259,-0.0282,-0.0278,-0.0314,-0.0314,-0.0314,-0.0314,-0.0314,0.048,0.0523,0.0589,0.0682,0.0764,0.0873,0.096,0.1044,0.1149,0.1223,0.1183,0.1127,0.0818,0.0362,0.0065,-0.0244,-0.024,-0.0361,-0.0359,-0.0357,-0.0345,-0.0319,-0.0381,-0.0381,-0.0381,-0.0382,-0.0382,0,0.0529,0.0585,0.0671,0.0784,0.0882,0.0921,0.1065,0.1147,0.1281,0.1312,0.1333,0.1041,0.0747,0.0415,-0.0049,-0.0332,-0.035,-0.0412,-0.038,-0.0377,-0.0374,-0.0362,-0.0404,-0.0404,-0.0405,-0.0406,0,0,0.056,0.0646,0.0691,0.0865,0.0954,0.1092,0.1184,0.1294,0.1357,0.1369,0.1323,0.1234,0.0839,0.0498,0.0114,-0.0142,-0.0188,-0.0187,-0.0141,-0.0055,-0.0049,-0.0321,-0.0295,0,0,0,0,0]}],[{"header":{"parameterUnit":"m.s-1","parameterCategory":2,"la1":30.2991,"la2":30.254,"lo1":-89.0895,"lo2":-89.0444,"dy":0.0017,"dx":0.0017,"nx":28,"ny":28,"refTime":"2025-04-16T09:00:00:Z","depth":"4","parameterNumber":2,"parameterNumberName":"U-component_of_CURRENTS"},"data":[0,0,0,0,0,0,0,0,0,0,0,0,0,0,0,0,0,0,0,0,0,0,0,0,0,0,0,0,0,0,0,0,0,0,0,0,0,0,0,0,0,0,0,0,0,0,0,0,0,0,0,0,0,0,0,0,0,0,0.1276,0.1277,0,0.1361,0.1362,0.1363,0.1428,0.1428,0.1429,0.143,0.151,0.1511,0.1513,0,0,0,0,0,0,0,0,0,0,0,0,0,0.1188,0.1189,0.1275,0.1277,0.1278,0.1361,0.1362,0.1363,0.1427,0.1428,0.1429,0.143,0.1509,0.1511,0.1513,0,0,0,0,0,0,0,0,0,0,0,0,0,0.1244,0.1189,0.1275,0.1321,0.1326,0.1361,0.1362,0.1363,0.1427,0.1428,0.1429,0.143,0.1509,0.1511,0.1513,0.1506,0,0,0.152,0.1521,0,0,0,0,0,0,0,0,0.124,0.1247,0.1313,0.1318,0.1324,0.1386,0.1361,0.1411,0.1427,0.1387,0.143,0.1431,0.1468,0.1474,0.1486,0.1509,0.1513,0.152,0.1522,0.1522,0.1523,0,0,0,0,0,0,0,0.1236,0.1243,0.1308,0.1314,0.1321,0.1344,0.1353,0.1371,0.142,0.1391,0.1396,0.1407,0.1471,0.1483,0.1488,0.1514,0.152,0.1522,0.1523,0.1524,0.1633,0.1634,0,0,0,0,0,0,0.1226,0.124,0.1305,0.1311,0.1285,0.1345,0.1355,0.1364,0.142,0.143,0.1406,0.141,0.1479,0.1485,0.1491,0.1575,0.1522,0.1525,0.1526,0.1631,0.1633,0.1635,0,0,0,0,0,0,0.1224,0.1231,0.1302,0.1278,0.1289,0.1345,0.1355,0.1365,0.1411,0.1432,0.1442,0.1446,0.148,0.1488,0.1538,0.1576,0.1526,0.1528,0.163,0.1632,0.1634,0.1686,0,0,0,0,0,0,0.1221,0.123,0.1246,0.1277,0.129,0.1346,0.1354,0.1366,0.1415,0.1421,0.1468,0.1475,0.1482,0.1535,0.154,0.1578,0.1529,0.1628,0.1631,0.1633,0.1683,0.169,0.1697,0,0,0,0,0,0.1218,0.1233,0.1246,0.1255,0.1306,0.1347,0.1356,0.1398,0.1416,0.1442,0.1475,0.1475,0.1557,0.1538,0.1544,0.1583,0.1626,0.163,0.1633,0.1679,0.1689,0.1696,0,0,0,0,0,0,0.1208,0.1242,0.1257,0.1284,0.1323,0.1359,0.1392,0.1414,0.1461,0.1477,0.1492,0.1502,0.156,0.1563,0.1541,0.1623,0.1593,0.1598,0.1626,0.1635,0.1642,0.1638,0.1531,0,0,0,0,0,0.121,0.1231,0.1268,0.1294,0.1317,0.1359,0.1386,0.1415,0.1453,0.1477,0.1508,0.1542,0.1573,0.1598,0.1622,0.1665,0.1676,0.1695,0.1702,0.1708,0.171,0.176,0.1772,0.1647,0.1646,0.1646,0,0,0.1212,0.1237,0.1248,0.1294,0.133,0.1365,0.1379,0.1432,0.1466,0.1476,0.1541,0.1568,0.1589,0.1641,0.1667,0.1653,0.1752,0.1713,0.1717,0.1716,0.1765,0.1777,0.1788,0.1649,0.1648,0.1648,0,0,0.1222,0.1253,0.1274,0.1309,0.1367,0.1392,0.1413,0.1468,0.1504,0.156,0.1578,0.1627,0.1677,0.1701,0.1716,0.1775,0.1785,0.1792,0.1828,0.1878,0.1889,0.1898,0.1936,0.1948,0.1798,0.1798,0.1798,0,0.1227,0.1254,0.1289,0.1323,0.1354,0.1406,0.1439,0.1481,0.1546,0.1578,0.1591,0.1685,0.1702,0.1762,0.1785,0.1791,0.182,0.1794,0.1887,0.1897,0.1905,0.1941,0.1954,0.1801,0.18,0.18,0.18,0,0.1246,0.128,0.1302,0.1355,0.1394,0.1435,0.149,0.1541,0.159,0.1629,0.1713,0.1749,0.1805,0.1823,0.1823,0.1899,0.19,0.1888,0.1864,0.1921,0.1955,0.1968,0.1805,0.1804,0.1803,0.1802,0,0,0.1218,0.1297,0.1306,0.1336,0.1414,0.1444,0.1512,0.1578,0.1632,0.1705,0.1776,0.1835,0.1872,0.1891,0.1913,0.1955,0.2041,0.1956,0.1957,0.1989,0.2158,0.2021,0.2021,0.2056,0.2058,0.206,0.2159,0,0.1224,0.1277,0.132,0.1378,0.1408,0.1477,0.1532,0.1604,0.1676,0.176,0.1822,0.1901,0.1895,0.1943,0.1985,0.2032,0.2076,0.2015,0.21,0.2102,0.197,0.2031,0.2067,0.2168,0.2171,0.2173,0.2175,0,0.1221,0.1258,0.1309,0.1387,0.141,0.1458,0.1558,0.1618,0.1739,0.18,0.1893,0.1955,0.2046,0.2031,0.214,0.2109,0.2138,0.2163,0.2167,0.2026,0.1987,0.2098,0.2197,0.2195,0.2194,0.2192,0.2191,0,0.1168,0.1246,0.1285,0.1313,0.1412,0.1458,0.152,0.1633,0.1702,0.1844,0.1922,0.2026,0.2108,0.2164,0.2225,0.2201,0.2335,0.2303,0.2205,0.2196,0.2266,0.2255,0.2373,0.2373,0.2373,0.2373,0.2373,0,0.1139,0.1172,0.1269,0.1292,0.1354,0.1434,0.1523,0.1604,0.1737,0.1824,0.1948,0.2033,0.2151,0.2242,0.2266,0.2277,0.2373,0.2219,0.2215,0.2286,0.2276,0.2275,0.2263,0.2376,0.2376,0.2375,0.2374,0,0.1069,0.1134,0.118,0.1287,0.1333,0.1375,0.1522,0.1581,0.1723,0.1847,0.1905,0.2074,0.2179,0.2274,0.2376,0.2322,0.2348,0.2327,0.2414,0.2411,0.2165,0.2154,0.2218,0.2214,0.221,0.2208,0.2205,0,0.1033,0.1051,0.1167,0.1206,0.1261,0.1349,0.1415,0.1559,0.1628,0.185,0.1897,0.2068,0.216,0.2202,0.2293,0.2337,0.2308,0.2311,0.2211,0.2161,0.2151,0.2145,0.2139,0.22,0.2199,0.2198,0.2197,0,0.0958,0.1009,0.1057,0.1139,0.1209,0.1281,0.1388,0.1434,0.1603,0.1746,0.1853,0.1933,0.2047,0.2114,0.2175,0.2196,0.23,0.2275,0.228,0.2186,0.214,0.2132,0.213,0.2186,0.2187,0.2188,0.2189,0,0.0909,0.0916,0.0994,0.106,0.1143,0.1198,0.1263,0.1354,0.1444,0.1678,0.1704,0.1881,0.2019,0.2043,0.2096,0.2111,0.2067,0.1996,0.2015,0.2029,0.192,0.1831,0.1786,0,0,0,0,0,0.0853,0.0864,0.0914,0.0983,0.1063,0.1123,0.1243,0.1312,0.1476,0.1505,0.1603,0.1697,0.1791,0.1877,0.1854,0.2009,0.2073,0.1973,0.1999,0.2121,0.2134,0.2023,0,0,0,0,0,0,0.0815,0.0854,0.088,0.0914,0.0956,0.1034,0.1109,0.1219,0.1241,0.1412,0.1465,0.1595,0.1701,0.1787,0.1823,0.1848,0.183,0.2075,0.2071,0.2113,0.2125,0.2136,0.2026,0,0,0,0,0]},{"header":{"parameterUnit":"m.s-1","parameterCategory":2,"la1":30.2991,"la2":30.254,"lo1":-89.0895,"lo2":-89.0444,"dy":0.0017,"dx":0.0017,"nx":28,"ny":28,"refTime":"2025-04-16T09:00:00:Z","depth":"4","parameterNumber":3,"parameterNumberName":"V-component_of_CURRENTS"},"data":[0,0,0,0,0,0,0,0,0,0,0,0,0,0,0,0,0,0,0,0,0,0,0,0,0,0,0,0,0,0,0,0,0,0,0,0,0,0,0,0,0,0,0,0,0,0,0,0,0,0,0,0,0,0,0,0,0,0,-0.007,-0.007,0,-0.0118,-0.0119,-0.012,-0.0154,-0.0154,-0.0154,-0.0155,-0.0238,-0.024,-0.0243,0,0,0,0,0,0,0,0,0,0,0,0,0,-0.0048,-0.0048,-0.007,-0.007,-0.0071,-0.0118,-0.0119,-0.012,-0.0154,-0.0154,-0.0154,-0.0155,-0.0238,-0.024,-0.0243,0,0,0,0,0,0,0,0,0,0,0,0,0,-0.0074,-0.0048,-0.007,-0.0093,-0.0095,-0.0118,-0.0119,-0.012,-0.0154,-0.0154,-0.0155,-0.0155,-0.0237,-0.024,-0.0243,-0.0257,0,0,-0.0253,-0.0254,0,0,0,0,0,0,0,0,-0.0072,-0.0075,-0.0089,-0.0091,-0.0094,-0.0129,-0.0142,-0.0167,-0.0154,-0.0133,-0.0155,-0.0155,-0.0204,-0.021,-0.022,-0.0261,-0.0265,-0.0253,-0.0255,-0.0256,-0.0257,0,0,0,0,0,0,0,-0.0071,-0.0073,-0.009,-0.0089,-0.0092,-0.0115,-0.0118,-0.0147,-0.0168,-0.0135,-0.0137,-0.0141,-0.0206,-0.0217,-0.0222,-0.0266,-0.0253,-0.0256,-0.0257,-0.0259,-0.033,-0.033,0,0,0,0,0,0,-0.006,-0.0071,-0.0089,-0.0092,-0.0082,-0.0115,-0.0119,-0.0119,-0.0167,-0.0174,-0.014,-0.0142,-0.0211,-0.0218,-0.0225,-0.024,-0.0256,-0.0259,-0.0261,-0.0329,-0.033,-0.033,0,0,0,0,0,0,-0.0059,-0.0061,-0.0087,-0.0082,-0.0087,-0.0114,-0.0114,-0.012,-0.0132,-0.0171,-0.0179,-0.0147,-0.0212,-0.0221,-0.025,-0.0243,-0.026,-0.0263,-0.0329,-0.0329,-0.033,-0.0272,0,0,0,0,0,0,-0.0058,-0.006,-0.0058,-0.0081,-0.0086,-0.0097,-0.0114,-0.012,-0.0133,-0.0136,-0.018,-0.0188,-0.0213,-0.0245,-0.0253,-0.0248,-0.0266,-0.0329,-0.0329,-0.033,-0.0274,-0.027,-0.0267,0,0,0,0,0,-0.0057,-0.0052,-0.0057,-0.006,-0.0082,-0.0097,-0.0102,-0.0124,-0.0133,-0.0137,-0.0166,-0.0186,-0.0251,-0.0247,-0.0257,-0.0253,-0.0329,-0.0329,-0.033,-0.0276,-0.0271,-0.0267,0,0,0,0,0,0,-0.0043,-0.0056,-0.0062,-0.0062,-0.0076,-0.0102,-0.0107,-0.0122,-0.0147,-0.015,-0.0188,-0.0198,-0.0221,-0.0247,-0.0242,-0.0274,-0.0293,-0.0295,-0.0249,-0.0245,-0.0241,-0.0221,-0.0268,0,0,0,0,0,-0.0037,-0.0036,-0.0054,-0.0053,-0.0059,-0.0083,-0.0092,-0.0105,-0.0129,-0.014,-0.0169,-0.0201,-0.0228,-0.0244,-0.0273,-0.0291,-0.0313,-0.0295,-0.0291,-0.0288,-0.0278,-0.0309,-0.0306,-0.033,-0.033,-0.033,0,0,-0.0033,-0.0038,-0.0039,-0.005,-0.0063,-0.0064,-0.0089,-0.0099,-0.0099,-0.0146,-0.0158,-0.0192,-0.0231,-0.025,-0.0262,-0.027,-0.0294,-0.0288,-0.0285,-0.0277,-0.0308,-0.0306,-0.0304,-0.033,-0.033,-0.033,0,0,-0.0019,-0.0026,-0.002,-0.0027,-0.0039,-0.0052,-0.0053,-0.0076,-0.0087,-0.0104,-0.0136,-0.0162,-0.0205,-0.0227,-0.0245,-0.0241,-0.0275,-0.0255,-0.0218,-0.0248,-0.0246,-0.0244,-0.0268,-0.0269,-0.0251,-0.0251,-0.0251,0,-0.0013,-0.0003,-0.0021,-0.0015,-0.0013,-0.0043,-0.0032,-0.0048,-0.0077,-0.0079,-0.01,-0.0154,-0.0191,-0.0207,-0.0207,-0.0231,-0.0254,-0.0229,-0.0241,-0.0241,-0.024,-0.0265,-0.0267,-0.0248,-0.0248,-0.0248,-0.0249,0,0.0007,0.0016,0.0019,0.0022,0.002,0.0023,0.0007,0.0001,-0.0016,-0.0032,-0.0053,-0.0103,-0.0131,-0.0151,-0.018,-0.0192,-0.0211,-0.0234,-0.0247,-0.0234,-0.0261,-0.0264,-0.0244,-0.0245,-0.0246,-0.0246,0,0,0.0016,0.0032,0.0033,0.0051,0.0044,0.0048,0.0051,0.0049,0.0059,0.002,0.0027,-0.0028,-0.0054,-0.0076,-0.0117,-0.0146,-0.0167,-0.0184,-0.0187,-0.0198,-0.0229,-0.0242,-0.0247,-0.0193,-0.0194,-0.0194,-0.0249,0,0.0038,0.0069,0.0068,0.0101,0.0118,0.0106,0.0117,0.0111,0.0095,0.0092,0.0042,0.0026,-0.0026,-0.0038,-0.0075,-0.0145,-0.0173,-0.015,-0.0248,-0.0251,-0.0257,-0.025,-0.0195,-0.0251,-0.0252,-0.0252,-0.0253,0,0.0057,0.008,0.0118,0.0158,0.0165,0.0179,0.0202,0.0207,0.0191,0.0178,0.0151,0.0111,0.0066,0.0019,-0.0084,-0.0069,-0.0139,-0.0196,-0.02,-0.0233,-0.027,-0.027,-0.0259,-0.0258,-0.0258,-0.0257,-0.0257,0,0.008,0.0117,0.0155,0.0165,0.0198,0.0218,0.0233,0.0233,0.0251,0.0232,0.0239,0.0176,0.0146,0.0052,-0.0069,-0.0077,-0.0185,-0.0212,-0.0287,-0.0289,-0.0285,-0.0286,-0.0277,-0.0277,-0.0277,-0.0277,-0.0276,0,0.0106,0.0136,0.0172,0.0193,0.025,0.0255,0.0305,0.0308,0.0319,0.0345,0.0286,0.0283,0.0151,0.0073,-0.0042,-0.0172,-0.0166,-0.0275,-0.0302,-0.0261,-0.0258,-0.0288,-0.0288,-0.0279,-0.0278,-0.0278,-0.0277,0,0.012,0.0141,0.0191,0.0239,0.0262,0.0298,0.0359,0.0391,0.0393,0.0424,0.0423,0.036,0.0251,0.0118,-0.0039,-0.0132,-0.0257,-0.0305,-0.024,-0.0265,-0.0347,-0.0344,-0.0387,-0.0388,-0.0389,-0.039,-0.039,0,0.013,0.0155,0.0225,0.0264,0.0288,0.0347,0.0391,0.0421,0.0453,0.0468,0.0482,0.0402,0.0338,0.012,-0.0036,-0.0242,-0.028,-0.0336,-0.035,-0.0335,-0.0358,-0.0354,-0.035,-0.0391,-0.0392,-0.0392,-0.0392,0,0.0148,0.0168,0.0211,0.0289,0.0346,0.0417,0.0477,0.051,0.0541,0.0554,0.0533,0.0428,0.0304,0.0123,-0.0037,-0.019,-0.0295,-0.0345,-0.0345,-0.0358,-0.0341,-0.0362,-0.0357,-0.0395,-0.0394,-0.0394,-0.0394,0,0.0156,0.0184,0.0237,0.0307,0.0384,0.0453,0.0492,0.0533,0.0568,0.0584,0.0573,0.0445,0.0374,0.0149,0.0,-0.0149,-0.0195,-0.0242,-0.0248,-0.0247,-0.0199,-0.0155,-0.0169,0,0,0,0,0,0.0156,0.0183,0.0252,0.0326,0.0406,0.0449,0.0535,0.0566,0.0604,0.0599,0.059,0.0476,0.0262,0.0168,0.0016,-0.0038,-0.0236,-0.0223,-0.0296,-0.0409,-0.0406,-0.0376,0,0,0,0,0,0,0.0153,0.0203,0.024,0.0329,0.038,0.0466,0.052,0.0553,0.0551,0.057,0.0458,0.0427,0.0212,0.0341,0.0006,-0.0039,-0.0107,-0.0318,-0.0321,-0.0411,-0.0408,-0.0406,-0.0374,0,0,0,0,0]}]]